FRS111N EDLW-EDDG

Flight info

Callsign FRS111N
Flight time 0h 24m
Altitude
Route
Aircraft

Departure

Time 2026-04-21 09:36
Airport Dortmund Airport (EDLW)

Arrival

Time 2026-04-21 10:00
Airport Münster Osnabrück Airport (EDDG)
Time Latitude Longitude Altitude Speed Heading
2026-04-21 09:29 51.51254 7.60556 457 ft 0 kts 103°
2026-04-21 09:30 51.51249 7.60552 458 ft 5 kts 305°
2026-04-21 09:31 51.51242 7.60426 451 ft 14 kts 237°
2026-04-21 09:31 51.51194 7.60295 452 ft 13 kts 234°
2026-04-21 09:31 51.51151 7.60198 456 ft 11 kts 262°
2026-04-21 09:31 51.51214 7.60215 446 ft 17 kts 60°
2026-04-21 09:32 51.51275 7.60386 442 ft 17 kts 62°
2026-04-21 09:32 51.51330 7.60546 433 ft 15 kts 60°
2026-04-21 09:32 51.51382 7.60692 437 ft 15 kts 60°
2026-04-21 09:32 51.51442 7.60863 424 ft 19 kts 60°
2026-04-21 09:33 51.51505 7.61041 425 ft 18 kts 54°
2026-04-21 09:33 51.51574 7.61012 421 ft 14 kts 275°
2026-04-21 09:33 51.51551 7.60863 419 ft 17 kts 250°
2026-04-21 09:33 51.51526 7.60696 414 ft 6 kts 271°
2026-04-21 09:34 51.51526 7.60694 414 ft 0 kts 272°
2026-04-21 09:34 51.51551 7.60623 413 ft 16 kts 327°
2026-04-21 09:35 51.51652 7.60713 418 ft 35 kts 62°
2026-04-21 09:35 51.51876 7.61349 414 ft 90 kts 60°
2026-04-21 09:35 51.52209 7.62352 526 ft 109 kts 63°
2026-04-21 09:35 51.52594 7.63496 766 ft 127 kts 61°
2026-04-21 09:36 51.53337 7.63605 1222 ft 136 kts 337°
2026-04-21 09:36 51.54262 7.62885 1289 ft 156 kts 342°
2026-04-21 09:36 51.55351 7.62571 1429 ft 161 kts 359°
2026-04-21 09:36 51.56509 7.62398 1439 ft 174 kts 357°
2026-04-21 09:37 51.57719 7.62185 1528 ft 176 kts 358°
2026-04-21 09:37 51.58958 7.61851 1453 ft 185 kts 349°
2026-04-21 09:37 51.60181 7.61522 1560 ft 176 kts
2026-04-21 09:37 51.61354 7.61822 1752 ft 170 kts 13°
2026-04-21 09:38 51.62542 7.62228 1665 ft 178 kts 15°
2026-04-21 09:38 51.63794 7.62661 1439 ft 189 kts 13°
2026-04-21 09:38 51.65052 7.62979 1643 ft 176 kts 10°
2026-04-21 09:38 51.66266 7.63010 1756 ft 177 kts
2026-04-21 09:39 51.67515 7.62845 1754 ft 181 kts 360°
2026-04-21 09:39 51.68777 7.62872 1758 ft 183 kts
2026-04-21 09:39 51.69960 7.62904 1743 ft 154 kts
2026-04-21 09:39 51.70936 7.62899 1738 ft 127 kts
2026-04-21 09:40 51.71763 7.62883 1736 ft 114 kts
2026-04-21 09:40 51.72551 7.62859 1739 ft 112 kts
2026-04-21 09:40 51.73318 7.62838 1740 ft 109 kts
2026-04-21 09:40 51.74076 7.62795 1742 ft 109 kts
2026-04-21 09:41 51.74829 7.62837 1745 ft 108 kts
2026-04-21 09:41 51.75583 7.62914 1743 ft 108 kts
2026-04-21 09:41 51.76323 7.62975 1744 ft 105 kts
2026-04-21 09:41 51.77049 7.63022 1746 ft 105 kts
2026-04-21 09:42 51.77785 7.63063 1742 ft 106 kts
2026-04-21 09:42 51.78528 7.63113 1746 ft 107 kts
2026-04-21 09:42 51.79266 7.63159 1746 ft 106 kts
2026-04-21 09:42 51.80002 7.63220 1735 ft 105 kts
2026-04-21 09:43 51.80721 7.63229 1741 ft 102 kts
2026-04-21 09:43 51.81485 7.63248 1771 ft 129 kts
2026-04-21 09:43 51.82509 7.63336 1785 ft 161 kts
2026-04-21 09:43 51.83681 7.63456 1768 ft 174 kts
2026-04-21 09:44 51.84913 7.63583 1763 ft 179 kts
2026-04-21 09:44 51.86169 7.63727 1735 ft 182 kts
2026-04-21 09:44 51.87436 7.63886 1736 ft 182 kts
2026-04-21 09:44 51.88708 7.64036 1729 ft 185 kts
2026-04-21 09:45 51.89990 7.64203 1726 ft 185 kts
2026-04-21 09:45 51.91265 7.64342 1725 ft 182 kts
2026-04-21 09:45 51.92519 7.64516 1726 ft 179 kts 11°
2026-04-21 09:45 51.93756 7.64797 1733 ft 181 kts 12°
2026-04-21 09:46 51.95009 7.65080 1735 ft 182 kts 13°
2026-04-21 09:46 51.96272 7.65370 1722 ft 183 kts 12°
2026-04-21 09:46 51.97521 7.65682 1728 ft 181 kts 14°
2026-04-21 09:46 51.98762 7.66082 1728 ft 182 kts 15°
2026-04-21 09:47 52.00011 7.66476 1734 ft 184 kts 15°
2026-04-21 09:47 52.01272 7.66886 1736 ft 185 kts 15°
2026-04-21 09:47 52.02531 7.67279 1737 ft 184 kts 15°
2026-04-21 09:47 52.03793 7.67678 1745 ft 186 kts 16°
2026-04-21 09:48 52.05050 7.68097 1736 ft 180 kts 17°
2026-04-21 09:48 52.06194 7.68480 1742 ft 157 kts 16°
2026-04-21 09:48 52.07188 7.68796 1737 ft 135 kts 16°
2026-04-21 09:48 52.08048 7.69032 1734 ft 115 kts
2026-04-21 09:49 52.08777 7.68683 1730 ft 101 kts 348°
2026-04-21 09:49 52.09374 7.68159 1530 ft 109 kts 320°
2026-04-21 09:49 52.09851 7.67127 1531 ft 125 kts 311°
2026-04-21 09:49 52.10404 7.65842 1499 ft 146 kts 311°
2026-04-21 09:50 52.11015 7.64544 1374 ft 138 kts 314°
2026-04-21 09:50 52.11214 7.64126 1305 ft 138 kts 315°
2026-04-21 09:50 52.12438 7.63875 732 ft 78 kts 59°
2026-04-21 09:51 52.12686 7.64731 498 ft 85 kts 66°
2026-04-21 09:51 52.12861 7.65631 353 ft 80 kts 68°
2026-04-21 09:51 52.13035 7.66429 253 ft 70 kts 66°
2026-04-21 09:51 52.13190 7.67198 170 ft 69 kts 65°
2026-04-21 09:52 52.13336 7.67853 158 ft 55 kts 72°
2026-04-21 09:52 52.13497 7.68654 217 ft 92 kts 68°
2026-04-21 09:52 52.13690 7.69650 582 ft 90 kts 71°
2026-04-21 09:52 52.13863 7.70648 919 ft 100 kts 70°
2026-04-21 09:53 52.14378 7.71442 1209 ft 123 kts
2026-04-21 09:53 52.15293 7.70969 1281 ft 157 kts 345°
2026-04-21 09:53 52.16140 7.69751 1332 ft 181 kts 291°
2026-04-21 09:53 52.15948 7.67658 1310 ft 196 kts 250°
2026-04-21 09:54 52.15379 7.65603 1231 ft 190 kts 244°
2026-04-21 09:54 52.14884 7.63816 1205 ft 158 kts 241°
2026-04-21 09:54 52.14047 7.63059 1055 ft 137 kts 171°
2026-04-21 09:54 52.13167 7.63660 799 ft 130 kts 141°
2026-04-21 09:55 52.12566 7.64370 889 ft 93 kts 108°
2026-04-21 09:55 52.12741 7.65223 745 ft 75 kts 61°
2026-04-21 09:55 52.12918 7.65927 536 ft 64 kts 63°
2026-04-21 09:55 52.13077 7.66640 255 ft 70 kts 66°
2026-04-21 09:56 52.13210 7.67293 159 ft 50 kts 66°
2026-04-21 09:56 52.13333 7.67840 158 ft 71 kts 72°
2026-04-21 09:56 52.13512 7.68771 396 ft 91 kts 71°
2026-04-21 09:56 52.13712 7.69723 899 ft 96 kts 70°
2026-04-21 09:57 52.13983 7.70881 1272 ft 115 kts 66°
2026-04-21 09:57 52.14618 7.71479 1418 ft 151 kts 335°
2026-04-21 09:57 52.15522 7.70360 1452 ft 169 kts 329°
2026-04-21 09:57 52.15965 7.68959 2042 ft 154 kts 246°
2026-04-21 09:58 52.15446 7.67360 1581 ft 166 kts 245°
2026-04-21 09:58 52.15072 7.65608 1196 ft 164 kts 252°
2026-04-21 09:58 52.14694 7.63928 1068 ft 146 kts 249°
2026-04-21 09:58 52.14165 7.62703 1040 ft 123 kts 199°
2026-04-21 09:59 52.13348 7.62799 855 ft 118 kts 155°
2026-04-21 09:59 52.12655 7.63421 767 ft 111 kts 128°
2026-04-21 09:59 52.12604 7.64511 588 ft 103 kts 71°
2026-04-21 09:59 52.12830 7.65564 536 ft 88 kts 65°
2026-04-21 10:00 52.13030 7.66444 393 ft 76 kts 66°
2026-04-21 10:00 52.13190 7.67196 160 ft 62 kts 68°
2026-04-21 10:00 52.13306 7.67728 158 ft 40 kts 68°
2026-04-21 10:00 52.13391 7.68115 162 ft 72 kts 70°
2026-04-21 10:01 52.13591 7.69115 221 ft 104 kts 70°
2026-04-21 10:01 52.13673 7.70253 708 ft 111 kts 104°
2026-04-21 10:01 52.12971 7.71126 747 ft 155 kts 168°
2026-04-21 10:01 52.11864 7.70836 1005 ft 167 kts 189°
2026-04-21 10:02 52.09795 7.70076 2174 ft 149 kts 188°
2026-04-21 10:02 52.08725 7.69645 2301 ft 173 kts 187°
2026-04-21 10:02 52.07488 7.69144 2293 ft 189 kts 189°
2026-04-21 10:03 52.06188 7.68671 2302 ft 194 kts 187°
2026-04-21 10:03 52.04849 7.68173 2298 ft 199 kts 188°
2026-04-21 10:03 52.03482 7.67665 2298 ft 203 kts 188°
2026-04-21 10:03 52.02097 7.67152 2255 ft 205 kts 189°